Regional Weather Roundup
Issued by NWS

Home | Current Version | Previous Version | Text Only | Print | Product List | Glossary Off
Versions: 1 2 3 4 5 6 7 8 9 10 11 12 13 14 15 16 17 18 19 20 21 22 23 24 25 26 27 28 29 30 31 32 33 34 35 36 37 38 39 40 41 42 43 44 45 46 47 48 49 50

000
ASUS43 KBIS 262202
RWRND

NORTH DAKOTA REGIONAL WEATHER ROUNDUP
NATIONAL WEATHER SERVICE BISMARCK ND
500 PM CDT TUE JUL 26 2016

NOTE: "FAIR" INDICATES FEW OR NO CLOUDS BELOW 12,000 FEET WITH NO
SIGNIFICANT WEATHER AND/OR OBSTRUCTIONS TO VISIBILITY.


NDZ001>003-009>011-017-262300-
NORTHWEST NORTH DAKOTA

CITY           SKY/WX    TMP DP  RH WIND       PRES   REMARKS
WILLISTON      CLOUDY    81  55  40 NE13      30.06F
MINOT          CLOUDY    80  61  52 N12       30.03R
MINOT AFB      PTSUNNY   78  58  50 N14       30.03R
$$

NDZ018>021-031>035-040>046-262300-
SOUTHWEST NORTH DAKOTA

CITY           SKY/WX    TMP DP  RH WIND       PRES   REMARKS
BISMARCK       CLOUDY    82  65  56 NE15      30.01R
DICKINSON      CLOUDY    77  58  51 NE15      30.06S
GARRISON         N/A     75  66  73 N6        30.05R
HETTINGER ARPT SUNNY     86  58  38 NE17      30.06R
$$

NDZ004>008-012>016-024-026-027-054-262300-
NORTHEAST NORTH DAKOTA

CITY           SKY/WX    TMP DP  RH WIND       PRES   REMARKS
GRAND FORKS    CLOUDY    87  64  46 NE7       29.95S
GRND FRKS AFB  CLOUDY    84  65  52 NE9       29.97S
DEVILS LAKE    CLOUDY    75  63  66 N17G25    30.00S THUNDER
$$

NDZ022-023-025-028>030-036>039-047>053-262300-
SOUTHEAST NORTH DAKOTA

CITY           SKY/WX    TMP DP  RH WIND       PRES   REMARKS
FARGO          CLOUDY    84  70  62 CALM      29.94S
JAMESTOWN      LGT RAIN  72  67  84 S6        29.97R
$$





USA.gov is the U.S. government's official web portal to all federal, state and local government web resources and services.